Location: Elmsmere
(40.9284°N, 73.8207°W)
Time: 04:58:39
(UTC+00:00)

In-Cosmos 22 Rocket - Pass Details

Date: 29 October 2020
Orbit: 790 x 888 km, 81.2° (Epoch: 27 November)

Event Time Altitude Azimuth Distance (km) Brightness Sun altitude
Rises 22:39:23 0° 354° (N) 3,315 7.3 -9.1°
Reaches altitude 10° 22:41:48 10° 358° (N) 2,390 6.5 -9.5°
Maximum altitude 22:47:07 58° 78° (ENE) 945 4.2 -10.5°
Drops below altitude 10° 22:52:31 10° 157° (SSE) 2,430 6.5 -11.5°
Sets 22:54:59 0° 161° (SSE) 3,375 7.2 -12.0°
